Weather History for Tampa Knight Airport, FL

Change the Weather History Date:

Tuesday, May 6, 2014

  Actual Average (KTPA) Record (KTPA)
Temperature  
Mean Temperature 78 °F 76 °F  
Max Temperature 89 °F 85 °F 95 °F (1995)
Min Temperature 68 °F 67 °F 53 °F (1970)
Degree Days  
Heating Degree Days 0 0  
Month to date heating degree days 0  
Since 1 July heating degree days 538  
Cooling Degree Days 14 11  
Month to date cooling degree days 65  
Year to date cooling degree days 525  
Growing Degree Days 28 (Base 50)    
Moisture  
Dew Point 60 °F    
Average Humidity 52    
Maximum Humidity 78    
Minimum Humidity 27    
Precipitation  
Precipitation 0.00 in 0.06 in 2.35 in (1944)
Month to date precipitation 0.31  
Year to date precipitation 10.41  
Sea Level Pressure  
Sea Level Pressure 30.02 in    
Wind  
Wind Speed 2 mph (SSE)    
Max Wind Speed 10 mph    
Max Gust Speed -    
Visibility 10 miles    
Events      
T = Trace of Precipitation, MM = Missing Value Source: NWS Daily Summary

Daily Weather History Graph

Daily Weather History Graph

Search for Another Location

Airport:

Trip Planner

Search our weather history database for the weather conditions in past years. The results will help you decide how hot, cold, wet, or windy it might be!

Date:

Astronomy

May. 06, 2014 Rise Set
Actual Time 6:46 AM EDT 8:07 PM EDT
Civil Twilight 6:21 AM EDT 8:32 PM EDT
Nautical Twilight 5:51 AM EDT 9:01 PM EDT
Astronomical Twilight 5:20 AM EDT 9:32 PM EDT
Moon 12:55 PM EDT (5/6) 1:30 AM EDT (5/6)
Length of Visible Light 14h 10m
Length of Day
13h 20m
Waxing Crescent, 46% of the Moon is Illuminated
May 6
Waxing Crescent
May 6
First Quarter
May 14
Full
May 21
Last Quarter
May 28
New

Hourly Weather History & Observations

Time (EDT) Temp. Heat Index Dew Point Humidity Pressure Visibility Wind Dir Wind Speed Gust Speed Precip Events Conditions
12:15 AM 71.6 °F - 60.8 °F 69% 30.04 in 10.0 mi Calm Calm - N/A   Clear
12:35 AM 71.6 °F - 62.6 °F 73% 30.04 in 10.0 mi Calm Calm - N/A   Clear
1:15 AM 71.6 °F - 62.6 °F 73% 30.03 in 10.0 mi Calm Calm - N/A   Clear
1:35 AM 69.8 °F - 62.6 °F 78% 30.03 in 10.0 mi Calm Calm - N/A   Clear
1:55 AM 69.8 °F - 62.6 °F 78% 30.03 in 10.0 mi Calm Calm - N/A   Clear
2:15 AM 69.8 °F - 62.6 °F 78% 30.02 in 10.0 mi Calm Calm - N/A   Clear
2:35 AM 68.0 °F - 60.8 °F 78% 30.02 in 10.0 mi Calm Calm - N/A   Clear
2:55 AM 69.8 °F - 62.6 °F 78% 30.01 in 10.0 mi Calm Calm - N/A   Clear
3:15 AM 69.8 °F - 62.6 °F 78% 30.01 in 10.0 mi Calm Calm - N/A   Clear
7:55 AM 71.6 °F - 62.6 °F 73% 30.04 in 10.0 mi ENE 3.5 mph - N/A   Clear
8:15 AM 71.6 °F - 62.6 °F 73% 30.05 in 10.0 mi ENE 3.5 mph - N/A   Clear
8:35 AM 73.4 °F - 62.6 °F 69% 30.05 in 10.0 mi ENE 3.5 mph - N/A   Clear
8:55 AM 75.2 °F - 62.6 °F 65% 30.06 in 10.0 mi Calm Calm - N/A   Clear
9:15 AM 77.0 °F - 64.4 °F 65% 30.06 in 10.0 mi Calm Calm - N/A   Clear
9:55 AM 78.8 °F - 64.4 °F 61% 30.06 in 10.0 mi SSE 3.5 mph - N/A   Clear
10:15 AM 78.8 °F - 64.4 °F 61% 30.06 in 10.0 mi South 3.5 mph - N/A   Clear
10:35 AM 80.6 °F 82.3 °F 64.4 °F 58% 30.06 in 10.0 mi Calm Calm - N/A   Clear
10:55 AM 80.6 °F 82.7 °F 66.2 °F 61% 30.06 in 10.0 mi Calm Calm - N/A   Clear
11:15 AM 82.4 °F 83.9 °F 64.4 °F 54% 30.06 in 10.0 mi Calm Calm - N/A   Clear
11:35 AM 82.4 °F 83.9 °F 64.4 °F 54% 30.06 in 10.0 mi South 3.5 mph - N/A   Clear
11:55 AM 82.4 °F 84.6 °F 66.2 °F 58% 30.06 in 10.0 mi Calm Calm - N/A   Clear
12:15 PM 86.0 °F 87.3 °F 64.4 °F 48% 30.05 in 10.0 mi Calm Calm - N/A   Clear
12:35 PM 84.2 °F 85.6 °F 64.4 °F 51% 30.05 in 10.0 mi South 3.5 mph - N/A   Clear
12:55 PM 86.0 °F 87.3 °F 64.4 °F 48% 30.04 in 10.0 mi SSE 3.5 mph - N/A   Clear
1:15 PM 87.8 °F 87.1 °F 59.0 °F 38% 30.04 in 10.0 mi NE 4.6 mph - N/A   Clear
1:35 PM 87.8 °F 87.6 °F 60.8 °F 40% 30.03 in 10.0 mi Calm Calm - N/A   Clear
1:55 PM 89.6 °F 88.9 °F 59.0 °F 36% 30.03 in 10.0 mi Calm Calm - N/A   Clear
2:15 PM 87.8 °F 87.1 °F 59.0 °F 38% 30.02 in 10.0 mi SSW 5.8 mph - N/A   Clear
2:35 PM 89.6 °F 87.7 °F 55.4 °F 31% 30.01 in 10.0 mi South 4.6 mph - N/A   Clear
2:55 PM 89.6 °F 88.1 °F 57.2 °F 33% 30.00 in 10.0 mi SW 3.5 mph - N/A   Clear
3:15 PM 89.6 °F 88.1 °F 57.2 °F 33% 30.00 in 10.0 mi South 4.6 mph - N/A   Clear
3:35 PM 89.6 °F 88.1 °F 57.2 °F 33% 29.99 in 10.0 mi SW 4.6 mph - N/A   Clear
4:15 PM 89.6 °F 87.7 °F 55.4 °F 31% 29.98 in 10.0 mi SSW 4.6 mph - N/A   Clear
4:35 PM 89.6 °F 87.3 °F 53.6 °F 29% 29.98 in 10.0 mi SSW 3.5 mph - N/A   Clear
4:55 PM 89.6 °F 87.3 °F 53.6 °F 29% 29.97 in 10.0 mi South 4.6 mph - N/A   Clear
5:15 PM 89.6 °F 87.3 °F 53.6 °F 29% 29.97 in 10.0 mi South 4.6 mph - N/A   Clear
5:35 PM 89.6 °F - 51.8 °F 27% 29.97 in 10.0 mi SSW 4.6 mph - N/A   Clear
5:55 PM 89.6 °F 87.7 °F 55.4 °F 31% 29.97 in 10.0 mi South 4.6 mph - N/A   Clear
6:15 PM 89.6 °F - 51.8 °F 27% 29.97 in 10.0 mi SSE 5.8 mph - N/A   Clear
6:35 PM 89.6 °F - 51.8 °F 27% 29.97 in 10.0 mi SE 3.5 mph - N/A   Clear
6:55 PM 89.6 °F 87.3 °F 53.6 °F 29% 29.97 in 10.0 mi SE 6.9 mph - N/A   Clear
7:15 PM 87.8 °F - 51.8 °F 29% 29.97 in 10.0 mi ESE 6.9 mph - N/A   Clear
7:35 PM 87.8 °F - 51.8 °F 29% 29.98 in 10.0 mi ESE 4.6 mph - N/A   Clear
7:55 PM 86.0 °F 85.4 °F 59.0 °F 40% 29.98 in 10.0 mi SSE 4.6 mph - N/A   Clear
8:15 PM 84.2 °F 85.6 °F 64.4 °F 51% 29.98 in 10.0 mi South 3.5 mph - N/A   Clear
8:35 PM 80.6 °F 82.7 °F 66.2 °F 61% 29.99 in 10.0 mi Calm Calm - N/A   Clear
8:55 PM 80.6 °F 82.3 °F 64.4 °F 58% 29.99 in 10.0 mi Calm Calm - N/A   Clear
9:15 PM 80.6 °F 81.5 °F 60.8 °F 51% 30.00 in 10.0 mi NNW 4.6 mph - N/A   Clear
9:35 PM 80.6 °F 81.5 °F 60.8 °F 51% 30.00 in 10.0 mi NW 4.6 mph - N/A   Clear
9:55 PM 78.8 °F - 60.8 °F 54% 30.01 in 10.0 mi NW 4.6 mph - N/A   Clear
10:15 PM 78.8 °F - 62.6 °F 57% 30.01 in 10.0 mi NW 4.6 mph - N/A   Clear
10:35 PM 77.0 °F - 62.6 °F 61% 30.02 in 10.0 mi NE 10.4 mph - N/A   Clear
10:55 PM 77.0 °F - 62.6 °F 61% 30.02 in 10.0 mi NE 5.8 mph - N/A   Clear
11:15 PM 77.0 °F - 62.6 °F 61% 30.03 in 10.0 mi SE 5.8 mph - N/A   Clear
11:55 PM 78.8 °F - 64.4 °F 61% 30.04 in 10.0 mi ESE 9.2 mph - N/A   Clear